| time (UTC) | temp C | wind direction | speed KPH | gust KPH | rain 1hr cm | rain 24hr cm | rain mn cm | humidity % | barometer mb |
| 20260504140648 | 17 | 261 | 0.0 | 0.0 | 0.00 | 0.15 | 0.15 | 88 | 1015.3 |
| 20260504130607 | 18 | 175 | 0.0 | 0.0 | 0.00 | 0.15 | 0.15 | 84 | 1015.3 |
| 20260504110548 | 20 | 333 | 4.8 | 14.5 | 0.00 | 0.15 | 0.15 | 78 | 1014.7 |
| 20260504100436 | 20 | 354 | 8.0 | 16.1 | 0.00 | 0.15 | 0.15 | 77 | 1014.0 |
| 20260504081315 | 20 | 346 | 6.4 | 12.9 | 0.00 | 0.15 | 0.15 | 79 | 1014.0 |
| 20260504080313 | 19 | 352 | 4.8 | 9.7 | 0.00 | 0.15 | 0.15 | 80 | 1014.0 |
| 20260504070305 | 20 | 344 | 3.2 | 9.7 | 0.00 | 0.15 | 0.15 | 81 | 1013.3 |
| 20260504050216 | 19 | 342 | 4.8 | 8.0 | 0.03 | 0.13 | 0.15 | 85 | 1013.6 |
| 20260504045214 | 19 | 0 | 3.2 | 9.7 | 0.03 | 0.13 | 0.15 | 86 | 1013.6 |
| 20260504044213 | 18 | 6 | 3.2 | 9.7 | 0.03 | 0.13 | 0.15 | 87 | 1013.6 |
| 20260504043211 | 18 | 342 | 6.4 | 11.3 | 0.03 | 0.13 | 0.15 | 88 | 1013.6 |
| 20260504042209 | 18 | 340 | 4.8 | 11.3 | 0.00 | 0.10 | 0.13 | 89 | 1014.0 |
| 20260504041208 | 18 | 8 | 6.4 | 11.3 | 0.03 | 0.10 | 0.13 | 91 | 1014.0 |
| 20260504040206 | 18 | 358 | 3.2 | 6.4 | 0.03 | 0.10 | 0.13 | 91 | 1014.0 |
| 20260504035204 | 18 | 9 | 1.6 | 8.0 | 0.05 | 0.10 | 0.10 | 91 | 1014.0 |
| 20260504034202 | 18 | 343 | 3.2 | 8.0 | 0.05 | 0.10 | 0.10 | 91 | 1014.3 |
| 20260504033201 | 18 | 346 | 3.2 | 8.0 | 0.05 | 0.10 | 0.10 | 91 | 1014.3 |
| 20260504032159 | 18 | 335 | 3.2 | 4.8 | 0.08 | 0.10 | 0.10 | 91 | 1014.7 |
| 20260504031158 | 18 | 335 | 1.6 | 4.8 | 0.05 | 0.08 | 0.08 | 91 | 1014.7 |
| 20260504030156 | 18 | 335 | 1.6 | 9.7 | 0.08 | 0.08 | 0.08 | 92 | 1015.0 |
| 20260504025053 | 18 | 335 | 1.6 | 9.7 | 0.05 | 0.05 | 0.05 | 90 | 1015.3 |
| 20260504024051 | 18 | 349 | 1.6 | 6.4 | 0.05 | 0.05 | 0.05 | 91 | 1015.7 |
| 20260504023018 | 18 | 350 | 1.6 | 6.4 | 0.03 | 0.03 | 0.05 | 90 | 1015.7 |
| 20260504022017 | 18 | 297 | 3.2 | 4.8 | 0.03 | 0.03 | 0.05 | 89 | 1016.0 |
| 20260504021016 | 18 | 287 | 0.0 | 1.6 | 0.03 | 0.03 | 0.05 | 89 | 1016.0 |
| 20260504020014 | 18 | 287 | 0.0 | 4.8 | 0.00 | 0.00 | 0.03 | 88 | 1016.4 |
| 20260504015012 | 19 | 287 | 0.0 | 8.0 | 0.00 | 0.00 | 0.03 | 88 | 1016.4 |
| 20260504014011 | 19 | 249 | 0.0 | 8.0 | 0.00 | 0.00 | 0.03 | 87 | 1016.7 |
| 20260504013010 | 19 | 237 | 0.0 | 0.0 | 0.00 | 0.00 | 0.00 | 86 | 1016.7 |
| 20260504011937 | 19 | 237 | 0.0 | 0.0 | 0.00 | 0.00 | 0.00 | 85 | 1017.0 |
| 20260504010936 | 19 | 237 | 0.0 | 0.0 | 0.00 | 0.00 | 0.00 | 85 | 1017.0 |
| 20260504005903 | 19 | 237 | 0.0 | 1.6 | 0.00 | 0.00 | 0.00 | 86 | 1016.7 |
| 20260504004902 | 18 | 237 | 0.0 | 3.2 | 0.00 | 0.00 | 0.00 | 86 | 1016.7 |
| 20260504003900 | 18 | 237 | 1.6 | 3.2 | 0.00 | 0.00 | 0.00 | 86 | 1016.7 |
| 20260504002756 | 18 | 237 | 1.6 | 1.6 | 0.00 | 0.00 | 0.00 | 87 | 1016.7 |
| 20260504001724 | 18 | 237 | 1.6 | 3.2 | 0.00 | 0.00 | 0.00 | 87 | 1016.7 |
| 20260504000722 | 18 | 237 | 0.0 | 3.2 | 0.00 | 0.00 | 0.00 | 87 | 1016.7 |
| 20260503235721 | 18 | 237 | 0.0 | 3.2 | 0.00 | 0.00 | 0.00 | 88 | 1016.7 |
| 20260503234719 | 18 | 237 | 0.0 | 4.8 | 0.00 | 0.00 | 0.00 | 87 | 1017.0 |
| 20260503233646 | 18 | 238 | 0.0 | 4.8 | 0.00 | 0.00 | 0.00 | 87 | 1017.0 |
| 20260503232645 | 19 | 281 | 1.6 | 1.6 | 0.00 | 0.00 | 0.00 | 87 | 1017.4 |
| 20260503231643 | 19 | 288 | 0.0 | 1.6 | 0.00 | 0.00 | 0.00 | 88 | 1017.4 |
| 20260503230641 | 19 | 288 | 0.0 | 1.6 | 0.00 | 0.00 | 0.00 | 87 | 1017.0 |
| 20260503225640 | 19 | 288 | 0.0 | 1.6 | 0.00 | 0.00 | 0.00 | 87 | 1017.0 |
| 20260503224638 | 18 | 288 | 0.0 | 1.6 | 0.00 | 0.00 | 0.00 | 88 | 1016.7 |
| 20260503223637 | 18 | 288 | 0.0 | 1.6 | 0.00 | 0.00 | 0.00 | 88 | 1016.4 |
| 20260503222635 | 18 | 288 | 0.0 | 1.6 | 0.00 | 0.00 | 0.00 | 89 | 1016.4 |
| 20260503221602 | 18 | 288 | 0.0 | 1.6 | 0.00 | 0.00 | 0.00 | 89 | 1016.0 |
| 20260503220600 | 18 | 288 | 0.0 | 4.8 | 0.00 | 0.00 | 0.00 | 89 | 1016.0 |
| 20260503215558 | 18 | 288 | 0.0 | 4.8 | 0.00 | 0.00 | 0.00 | 90 | 1016.0 |
| 20260503214525 | 18 | 287 | 3.2 | 4.8 | 0.00 | 0.00 | 0.00 | 91 | 1016.0 |
| 20260503213524 | 17 | 279 | 3.2 | 4.8 | 0.00 | 0.00 | 0.00 | 92 | 1016.4 |
| 20260503212523 | 17 | 351 | 0.0 | 0.0 | 0.00 | 0.00 | 0.00 | 94 | 1016.0 |
| 20260503211450 | 17 | 350 | 0.0 | 0.0 | 0.00 | 0.00 | 0.00 | 94 | 1016.0 |
| 20260503210449 | 17 | 350 | 0.0 | 0.0 | 0.00 | 0.00 | 0.00 | 94 | 1015.7 |
| 20260503205417 | 16 | 351 | 0.0 | 3.2 | 0.00 | 0.00 | 0.00 | 93 | 1015.7 |
| 20260503204343 | 16 | 350 | 0.0 | 4.8 | 0.00 | 0.00 | 0.00 | 93 | 1015.7 |
| 20260503203310 | 16 | 351 | 1.6 | 6.4 | 0.00 | 0.00 | 0.00 | 93 | 1015.7 |
| 20260503202309 | 16 | 351 | 0.0 | 1.6 | 0.00 | 0.00 | 0.00 | 93 | 1015.3 |
| 20260503201307 | 16 | 351 | 0.0 | 1.6 | 0.00 | 0.00 | 0.00 | 93 | 1015.3 |
| 20260503200306 | 16 | 351 | 0.0 | 1.6 | 0.00 | 0.00 | 0.00 | 93 | 1015.0 |
| 20260503195305 | 16 | 351 | 0.0 | 1.6 | 0.00 | 0.00 | 0.00 | 93 | 1015.0 |
| 20260503194304 | 16 | 351 | 0.0 | 1.6 | 0.00 | 0.00 | 0.00 | 93 | 1015.0 |
| 20260503193303 | 16 | 351 | 0.0 | 1.6 | 0.00 | 0.00 | 0.00 | 93 | 1015.0 |
| 20260503192301 | 16 | 351 | 0.0 | 3.2 | 0.00 | 0.00 | 0.00 | 93 | 1015.0 |
| 20260503191259 | 16 | 351 | 0.0 | 3.2 | 0.00 | 0.00 | 0.00 | 93 | 1015.0 |
| 20260503190258 | 16 | 351 | 0.0 | 3.2 | 0.00 | 0.00 | 0.00 | 93 | 1015.0 |
| 20260503185257 | 16 | 351 | 0.0 | 3.2 | 0.00 | 0.00 | 0.00 | 93 | 1015.0 |
| 20260503184223 | 16 | 351 | 0.0 | 1.6 | 0.00 | 0.00 | 0.00 | 93 | 1015.0 |
| 20260503183221 | 16 | 351 | 0.0 | 1.6 | 0.00 | 0.00 | 0.00 | 92 | 1015.0 |
| 20260503182220 | 16 | 351 | 0.0 | 1.6 | 0.00 | 0.00 | 0.00 | 92 | 1015.0 |
| 20260503181219 | 16 | 351 | 0.0 | 1.6 | 0.00 | 0.00 | 0.00 | 91 | 1015.0 |
| 20260503180146 | 17 | 351 | 0.0 | 1.6 | 0.00 | 0.00 | 0.00 | 91 | 1015.0 |
| 20260503175114 | 17 | 351 | 0.0 | 3.2 | 0.00 | 0.00 | 0.00 | 91 | 1015.0 |
| 20260503174113 | 17 | 351 | 0.0 | 3.2 | 0.00 | 0.00 | 0.00 | 91 | 1015.0 |
| 20260503173110 | 17 | 351 | 1.6 | 3.2 | 0.00 | 0.00 | 0.00 | 91 | 1015.0 |
| 20260503172109 | 17 | 351 | 0.0 | 3.2 | 0.00 | 0.00 | 0.00 | 92 | 1015.4 |
| 20260503171036 | 17 | 351 | 0.0 | 1.6 | 0.00 | 0.00 | 0.00 | 92 | 1015.4 |
| 20260503150845 | 18 | 351 | 0.0 | 1.6 | 0.00 | 0.00 | 0.00 | 89 | 1016.4 |